Welcome to the New NWS' Forecast!
Most changes are behind the scenes, but click here for differences you might notice.
Latest weather observations around

WX6HNX-11 Sequoia NP (AT846)

Using English Units (Switch to International System of Units)
Date/ Time (PST) Wind (mph) Vis. (mi) Weather Sky Cond. Temp (°F) Rel. Humidity Wind Chill (°F) Heat Index (°F) Pressure Precip. (in)
Air Dwpt 6 hour Altimeter (inHg) Sea level (inHg) 1 hr 3 hr 6 hr
Max Min
Nov 22 02:27 Calm   Clear   38 35     90%     30.42        
Nov 22 02:17 Calm   Clear   39 36     89%     30.42        
Nov 22 02:12 Calm   Clear   39 36     89%     30.42        
Nov 22 02:07 Calm   Clear   39 36     89%     30.42        
Notice The following observation data may not be complete
Nov 22 01:57 Calm   Clear     36      %     30.42        
Notice The following observation data may not be complete
Nov 22 01:52 Calm   Clear     36      %     30.42        
Nov 22 01:47 Calm   Clear   39 36     89%     30.41        
Nov 22 01:42 Calm   Clear   39 36     89%     30.41        
Nov 22 01:37 Calm   Clear   39 36     89%     30.42        
Nov 22 01:32 Calm   Clear   39 36     88%     30.42        
Nov 22 01:27 Calm   Clear   39 36     89%     30.42        
Nov 22 01:22 Calm   Clear   39 36     89%     30.42        
Nov 22 01:17 Calm   Clear   39 36     89%     30.42        
Nov 22 01:12 Calm   Clear   39 36     89%     30.42        
Nov 22 01:05 Calm   Clear   39 36     89%     30.41        
Nov 22 00:59 Calm   Clear   39 36     89%     30.42        
Nov 22 00:52 Calm   Clear   39 36     89%     30.42        
Nov 22 00:46 Calm   Clear   39 36     88%     30.42        
Nov 22 00:40 Calm   Clear   39 36     88%     30.42        
Nov 22 00:32 Calm   Clear   39 36     88%     30.42        
Nov 22 00:27 Calm   Clear   39 36     88%     30.42        
Nov 22 00:22 Calm   Clear   39 36     88%     30.42        
Nov 22 00:17 Calm   Clear   39 36     88%     30.42        
Nov 22 00:12 Calm   Clear   39 36     88%     30.42        
Nov 22 00:07 Calm   Clear   39 36     88%     30.42        
Nov 22 00:02 Calm   Clear   39 36     88%     30.42        
Nov 21 23:57 Calm   Clear   39 36     88%     30.42        
Nov 21 23:47 Calm   Clear   40 37     88%     30.42        
Nov 21 23:42 Calm   Clear   40 37     88%     30.42        
Nov 21 23:37 Calm   Clear   40 37     88%     30.42        
Nov 21 23:32 Calm   Clear   40 37     88%     30.42        
Nov 21 23:27 Calm   Clear   40 37     88%     30.42        
Nov 21 23:22 Calm   Clear   40 37     88%     30.42        
Nov 21 23:17 Calm   Clear   40 37     88%     30.42        
Nov 21 23:12 Calm   Clear   40 36     87%     30.43        
Nov 21 23:07 Calm   Clear   40 36     87%     30.43        
Nov 21 23:02 Calm   Clear   40 36     87%     30.43        
Nov 21 22:57 Calm   Clear   40 36     87%     30.43        
Nov 21 22:52 Calm   Clear   40 36     87%     30.43        
Nov 21 22:47 Calm   Clear   40 36     87%     30.43        
Nov 21 22:42 Calm   Clear   40 36     87%     30.43        
Nov 21 22:37 Calm   Clear   40 36     87%     30.43        
Nov 21 22:32 Calm   Clear   40 36     87%     30.43        
Nov 21 22:27 Calm   Clear   40 36     86%     30.43        
Nov 21 22:22 Calm   Clear   40 36     86%     30.43        
Nov 21 22:17 Calm   Clear   40 36     86%     30.43        
Nov 21 22:12 Calm   Clear   40 36     86%     30.43        
Nov 21 22:07 Calm   Clear   40 36     87%     30.42        
Nov 21 22:00 Calm   Clear   40 36     86%     30.43        
Nov 21 21:45 Calm   Clear   40 36     86%     30.43        
Nov 21 21:40 Calm   Clear   41 37     85%     30.43        
Nov 21 21:30 Calm   Clear   41 37     85%     30.43        
Nov 21 21:25 Calm   Clear   41 37     85%     30.43        
Nov 21 21:20 Calm   Clear   41 37     85%     30.43        
Nov 21 21:15 Calm   Clear   41 37     85%     30.42        
Nov 21 21:10 Calm   Clear   41 37     84%     30.42        
Nov 21 21:05 Calm   Clear   41 37     85%     30.42        
Nov 21 21:00 Calm   Clear   41 37     85%     30.42        
Nov 21 20:55 Calm   Clear   41 37     85%     30.42        
Nov 21 20:50 Calm   Clear   41 37     85%     30.42        
Nov 21 20:45 Calm   Clear   41 37     84%     30.42        
Nov 21 20:40 Calm   Clear   41 37     84%     30.42        
Nov 21 20:35 Calm   Clear   41 37     84%     30.42        
Nov 21 20:25 Calm   Clear   42 38     84%     30.42        
Nov 21 20:20 Calm   Clear   42 38     84%     30.42        
Nov 21 20:15 Calm   Clear   42 37     83%     30.42        
Nov 21 20:10 Calm   Clear   42 37     83%     30.41        
Nov 21 20:05 Calm   Clear   42 37     83%     30.41        
Nov 21 20:00 Calm   Clear   42 37     83%     30.41        
Nov 21 19:55 Calm   Clear   42 37     82%     30.41        
Nov 21 19:45 Calm   Clear   43 38     82%     30.41        
Nov 21 19:40 Calm   Clear   43 38     81%     30.41        
Nov 21 19:35 Calm   Clear   43 38     81%     30.41        
Nov 21 19:30 Calm   Clear   43 38     81%     30.4        
Nov 21 19:25 Calm   Clear   43 38     82%     30.4        
Nov 21 19:15 Calm   Clear   43 38     81%     30.4        
Nov 21 19:10 Calm   Clear   43 38     81%     30.4        
Nov 21 19:00 Calm   Clear   44 39     81%     30.4        
Nov 21 18:55 Calm   Clear   44 39     81%     30.4        
Nov 21 18:50 Calm   Clear   44 38     80%     30.39        
Nov 21 18:45 Calm   Clear   44 38     80%     30.39        
Nov 21 18:40 Calm   Clear   44 38     80%     30.39        
Nov 21 18:35 Calm   Clear   45 39     79%     30.39        
Nov 21 18:30 Calm   Clear   45 39     79%     30.39        
Nov 21 18:25 Calm   Clear   45 39     79%     30.39        
Nov 21 18:20 Calm   Clear   45 39     78%     30.39        
Nov 21 18:15 Calm   Clear   45 39     78%     30.38        
Nov 21 18:10 Calm   Clear   45 38     77%     30.38        
Nov 21 18:05 Calm   Clear   46 39     77%     30.37        
Nov 21 18:00 Calm   Clear   46 39     77%     30.37        
Nov 21 17:55 Calm   Clear   46 39     76%     30.37        
Nov 21 17:50 Calm   Clear   46 39     76%     30.37        
Nov 21 17:45 Calm   Clear   47 39     75%     30.36        
Nov 21 17:40 Calm   Clear   47 40     76%     30.36        
Nov 21 17:35 Calm   Clear   47 39     74%     30.36        
Nov 21 17:30 Calm   Clear   47 39     74%     30.36        
Nov 21 17:25 Calm   Clear   48 40     74%     30.36        
Nov 21 17:20 Calm   Clear   48 40     74%     30.35        
Nov 21 17:15 Calm   Clear   49 41     73%     30.35        
Nov 21 17:10 Calm   Clear   49 41     73%     30.35        
Nov 21 17:05 Calm   Clear   49 40     72%     30.35        
Nov 21 16:55 Calm   Clear   50 41     71%     30.34        
Nov 21 16:50 Calm   Clear   51 42     71%     30.34        
Nov 21 16:35 Calm   Clear   52 42     69%     30.34        
Nov 21 16:25 Calm   Clear   53 42     67%     30.34        
Nov 21 15:25 Calm   Clear   59 45     60%     30.34        
Nov 21 15:20 Calm   Clear   59 45     59%     30.33        
Nov 21 15:10 Calm   Clear   60 45     58%     30.34        
Nov 21 15:05 Calm   Clear   60 45     58%     30.33        
Nov 21 14:55 Calm   Clear   60 44     56%     30.33        
Nov 21 14:50 Calm   Clear   61 45     56%     30.33        
Nov 21 14:40 Calm   Clear   61 45     55%     30.33        
Nov 21 14:35 Calm   Clear   61 44     53%     30.33        
Nov 21 14:25 Calm   Clear   62 44     52%     30.33        
Nov 21 14:20 Calm   Clear   62 44     51%     30.33        
Nov 21 14:15 Calm   Clear   62 43     50%     30.33        
Nov 21 14:10 Calm   Clear   63 44     49%     30.33        
Nov 21 14:00 Calm   Clear   63 45     52%     30.35        
Nov 21 13:55 Calm   Clear   62 44     51%     30.35        
Nov 21 13:40 Calm   Clear   63 42     47%     30.35        
Nov 21 13:30 Calm   Clear   63 42     47%     30.35        
Nov 21 13:25 Calm   Clear   63 41     44%     30.35        
Nov 21 13:15 WSW 1   Clear   63 43     48%     30.36        
Nov 21 13:10 Calm   Clear   63 43     48%     30.36        
Nov 21 13:05 Calm   Clear   63 42     47%     30.36        
Nov 21 13:00 Calm   Clear   62 42     48%     30.36        
Nov 21 12:55 Calm   Clear   62 43     49%     30.36        
Nov 21 12:45 Calm   Clear   62 45     54%     30.37        
Nov 21 12:40 Calm   Clear   61 44     54%     30.37        
Nov 21 12:35 Calm   Clear   61 43     51%     30.37        
Nov 21 12:25 WSW 1   Clear   61 45     55%     30.37        
Nov 21 12:20 WSW 1   Clear   61 43     52%     30.37        
Nov 21 12:14 WSW 1   Clear   62 42     47%     30.38        
Nov 21 12:09 WSW 2   Clear   62 41     46%     30.38        
Nov 21 12:04 SW 3   Clear   62 43     49%     30.38        
Nov 21 11:59 Calm   Clear   61 43     51%     30.38        
Nov 21 11:54 Calm   Clear   61 43     52%     30.38        
Nov 21 11:49 Calm   Clear   60 42     51%     30.38        
Nov 21 11:44 Calm   Clear   60 42     51%     30.38        
Nov 21 11:36 Calm   Clear   60 42     51%     30.39        
Nov 21 11:31 Calm   Clear   59 41     52%     30.39        
Nov 21 11:26 Calm   Clear   58 42     55%     30.37        
Nov 21 11:19 Calm   Clear   58 42     55%     30.37        
Nov 21 11:14 Calm   Clear   57 41     56%     30.37        
Nov 21 11:09 Calm   Clear   57 41     55%     30.38        
Nov 21 11:04 Calm   Clear   57 42     58%     30.38        
Nov 21 10:54 Calm   Clear   56 42     59%     30.38        
Nov 21 10:49 Calm   Clear   56 43     61%     30.38        
Nov 21 10:44 Calm   Clear   56 43     61%     30.39        
Nov 21 10:39 Calm   Clear   55 42     62%     30.39        
Nov 21 10:34 Calm   Clear   55 43     63%     30.39        
Nov 21 10:24 Calm   Clear   54 42     64%     30.39        
Nov 21 10:19 Calm   Clear   54 42     63%     30.39        
Nov 21 10:14 Calm   Clear   54 42     63%     30.39        
Nov 21 10:09 Calm   Clear   54 42     64%     30.4        
Nov 21 10:04 Calm   Clear   53 42     66%     30.39        
Nov 21 09:54 Calm   Clear   52 41     65%     30.39        
Nov 21 09:49 Calm   Clear   52 41     67%     30.39        
Nov 21 09:44 Calm   Clear   51 41     69%     30.4        
Nov 21 09:39 Calm   Clear   50 41     70%     30.4        
Nov 21 09:34 Calm   Clear   50 42     73%     30.39        
Nov 21 09:24 Calm   Clear   48 41     77%     30.39        
Nov 21 09:19 Calm   Clear   47 41     78%     30.4        
Nov 21 09:14 Calm   Clear   46 41     81%     30.4        
Nov 21 09:09 Calm   Clear   46 41     82%     30.4        
Nov 21 09:04 Calm   Clear   45 40     84%     30.4        
Nov 21 08:59 Calm   Clear   45 40     84%     30.4        
Nov 21 08:52 Calm   Clear   44 40     86%     30.39        
Nov 21 08:42 Calm   Clear   43 39     87%     30.39        
Nov 21 08:37 Calm   Clear   43 39     87%     30.39        
Nov 21 08:27 Calm   Clear   42 39     88%     30.39        
Nov 21 08:22 Calm   Clear   42 39     89%     30.39        
Nov 21 08:17 Calm   Clear   41 38     89%     30.39        
Nov 21 08:12 Calm   Clear   41 38     89%     30.39        
Nov 21 08:07 Calm   Clear   41 38     90%     30.38        
Nov 21 08:02 Calm   Clear   41 38     90%     30.38        
Nov 21 07:57 Calm   Clear   40 37     90%     30.38        
Nov 21 07:52 Calm   Clear   40 37     90%     30.38        
Nov 21 07:42 Calm   Clear   39 36     90%     30.38        
Nov 21 07:32 Calm   Clear   39 36     90%     30.37        
Nov 21 07:27 Calm   Clear   39 36     90%     30.37        
Nov 21 07:22 Calm   Clear   39 36     90%     30.37        
Nov 21 07:17 Calm   Clear   39 36     90%     30.37        
Nov 21 07:12 Calm   Clear   39 36     90%     30.37        
Nov 21 07:07 Calm   Clear   39 36     89%     30.37        
Nov 21 07:02 Calm   Clear   39 36     90%     30.36        
Nov 21 06:49 Calm   Clear   39 36     90%     30.36        
Nov 21 06:44 Calm   Clear   39 36     89%     30.36        
Nov 21 06:34 Calm   Clear   39 36     89%     30.35        
Nov 21 06:29 Calm   Clear   39 36     89%     30.35        
Nov 21 06:24 SSE 1   Clear   39 36     89%     30.36        
Nov 21 06:14 Calm   Clear   40 37     88%     30.35        
Nov 21 06:09 Calm   Clear   40 36     87%     30.35        
Nov 21 06:04 Calm   Clear   40 37     88%     30.34        
Nov 21 05:54 Calm   Clear   40 37     88%     30.34        
Nov 21 05:49 Calm   Clear   40 37     88%     30.34        
Nov 21 05:44 Calm   Clear   40 37     88%     30.34        
Nov 21 05:39 SE 1   Clear   40 37     88%     30.34        
Nov 21 05:34 Calm   Clear   40 36     87%     30.34        
Nov 21 05:29 Calm   Clear   40 36     87%     30.34        
Nov 21 05:24 Calm   Clear   40 36     86%     30.33        
Nov 21 05:14 Calm   Clear   40 36     87%     30.33        
Nov 21 05:09 Calm   Clear   40 36     87%     30.33        
Nov 21 05:04 Calm   Clear   40 36     87%     30.31        
Nov 21 04:59 Calm   Clear   40 36     86%     30.31        
Nov 21 04:54 Calm   Clear   40 36     86%     30.31        
Nov 21 04:49 Calm   Clear   40 36     87%     30.3        
Nov 21 04:44 Calm   Clear   40 36     86%     30.31        
Nov 21 04:39 Calm   Clear   40 36     87%     30.31        
Nov 21 04:34 Calm   Clear   40 36     87%     30.3        
Nov 21 04:29 Calm   Clear   40 36     87%     30.31        
Nov 21 04:24 Calm   Clear   40 36     86%     30.31        
Nov 21 04:19 Calm   Clear   40 36     86%     30.3        
Nov 21 04:14 Calm   Clear   40 36     87%     30.31        
Nov 21 04:09 Calm   Clear   40 36     86%     30.31        
Nov 21 04:04 Calm   Clear   40 36     86%     30.31        
Nov 21 03:59 Calm   Clear   40 36     87%     30.31        
Nov 21 03:54 Calm   Clear   40 36     87%     30.31        
Nov 21 03:49 Calm   Clear   40 36     86%     30.32        
Nov 21 03:44 Calm   Clear   40 36     86%     30.32        
Nov 21 03:39 Calm   Clear   40 36     87%     30.32        
Nov 21 03:34 Calm   Clear   40 36     86%     30.32        
Nov 21 03:29 Calm   Clear   40 36     86%     30.32        
Nov 21 03:23 Calm   Clear   40 36     85%     30.32        
Nov 21 03:14 Calm   Clear   40 36     85%     30.32        
Nov 21 03:09 Calm   Clear   40 36     85%     30.32        
Nov 21 03:04 Calm   Clear   40 36     85%     30.32        
Nov 21 02:59 Calm   Clear   40 36     85%     30.31        
Nov 21 02:54 Calm   Clear   40 36     85%     30.31        
Nov 21 02:49 Calm   Clear   40 36     84%     30.31        
Nov 21 02:44 Calm   Clear   40 36     84%     30.31        
Nov 21 02:39 Calm   Clear   40 36     84%     30.31        
Nov 21 02:34 Calm   Clear   41 37     84%     30.31        
Nov 21 02:29 Calm   Clear   41 37     84%     30.31        
Nov 21 02:24 Calm   Clear   41 36     83%     30.31        
Nov 21 02:14 Calm   Clear   41 36     83%     30.31        
Nov 21 02:09 E 2   Clear   41 36     82%     30.31        
Nov 21 02:04 Calm   Clear   41 36     82%     30.31        
Nov 21 01:59 Calm   Clear   41 36     82%     30.3        
Nov 21 01:54 Calm   Clear   41 36     81%     30.3        
Nov 21 01:49 ENE 2   Clear   41 36     81%     30.3        
Nov 21 01:44 Calm   Clear   42 36     80%     30.31        
Nov 21 01:39 Calm   Clear   42 36     80%     30.31        
Nov 21 01:34 ENE 1   Clear   42 36     80%     30.31        
Nov 21 01:29 Calm   Clear   42 36     79%     30.31        
Nov 21 01:24 ENE 1   Clear   42 36     79%     30.31        
Nov 21 01:19 Calm   Clear   42 36     79%     30.28        
Nov 21 01:14 N 1   Clear   41 35     79%     30.28        
Nov 21 01:04 Calm   Clear   42 36     78%     30.28        
Nov 21 00:59 NW 1   Clear   42 36     78%     30.28        
Nov 21 00:54 Calm   Clear   42 36     78%     30.28        
Nov 21 00:49 Calm   Clear   42 35     77%     30.28        
Nov 21 00:44 SW 2   Clear   41 35     78%     30.28        
Nov 21 00:36 W 1   Clear   40 34     80%     30.28        
Nov 21 00:28 ENE 2   Clear   40 35     81%     30.27        
Nov 21 00:18 Calm   Clear   39 34     82%     30.28        
Nov 21 00:11 ESE 2   Clear   39 34     83%     30.28        
Nov 21 00:05 W 1   Clear   39 34     83%     30.28        
Notice The following observation data may not be complete
Nov 20 23:58 WSW 2   Clear     34      %     30.28        
Nov 20 23:48 Calm   Clear   39 34     83%     30.28        
Nov 20 23:41 Calm   Clear   39 35     84%     30.28        
Nov 20 23:34 NNE 1   Clear   39 34     83%     30.28        
Nov 20 23:25 Calm   Clear   39 35     84%     30.28        
Nov 20 23:15 NNE 1   Clear   39 35     84%     30.27        
Nov 20 23:05 SSW 1   Clear   39 35     84%     30.27        
Nov 20 23:00 SSW 1   Clear   39 35     84%     30.28        
Nov 20 22:45 SSW 1   Clear   39 35     84%     30.28        
Nov 20 22:25 S 4   Clear   38 34     86% 35   30.27        
Nov 20 22:20 SSE 3   Clear   38 34     87% 36   30.28        
Nov 20 22:05 ESE 1   Clear   37 33     86%     30.28        
Nov 20 22:00 Calm   Clear   38 34     86%     30.28        
Notice The following observation data may not be complete
Nov 20 21:50 Calm   Clear     33      %     30.28        
Nov 20 21:45 Calm   Clear   37 33     86%     30.29        
Nov 20 21:40 ESE 1   Clear   37 33     85%     30.29        
Nov 20 21:35 Calm   Clear   37 33     85%     30.29        
Nov 20 21:25 Calm   Clear   37 33     84%     30.29        
Nov 20 21:20 Calm   Clear   38 34     84%     30.28        
Nov 20 21:10 SE 1   Clear   38 34     84%     30.28        
Nov 20 21:05 SE 1   Clear   37 33     84%     30.28        
Nov 20 20:55 Calm   Clear   38 33     83%     30.28        
Nov 20 20:50 Calm   Clear   38 33     82%     30.29        
Nov 20 20:45 Calm   Clear   38 33     82%     30.28        
Nov 20 20:40 Calm   Clear   38 33     82%     30.28        
Nov 20 20:30 Calm   Clear   38 33     81%     30.29        
Nov 20 20:25 Calm   Clear   38 33     81%     30.29        
Nov 20 20:20 Calm   Clear   39 33     80%     30.29        
Nov 20 20:15 Calm   Clear   39 33     80%     30.28        
Nov 20 20:10 Calm   Clear   39 33     79%     30.28        
Nov 20 20:05 Calm   Clear   39 33     79%     30.28        
Nov 20 20:00 Calm   Clear   39 33     79%     30.28        
Nov 20 19:55 Calm   Clear   39 33     78%     30.28        
Nov 20 19:50 Calm   Clear   39 33     78%     30.28        
Nov 20 19:45 Calm   Clear   40 33     77%     30.28        
Nov 20 19:37 Calm   Clear   40 33     76%     30.28        
Nov 20 19:32 Calm   Clear   40 33     75%     30.28        
Nov 20 19:27 Calm   Clear   40 33     75%     30.29        
Nov 20 19:07 Calm   Clear   42 34     73%     30.28        
Nov 20 18:57 Calm   Clear   42 34     72%     30.26        
Nov 20 18:37 Calm   Clear   43 34     70%     30.27        
Nov 20 18:32 Calm   Clear   44 35     70%     30.26        
Nov 20 18:22 Calm   Clear   44 34     68%     30.26        
Nov 20 18:09 Calm   Clear   44 34     69%     30.26        
Nov 20 18:04 Calm   Clear   45 35     69%     30.26        
Nov 20 17:59 Calm   Clear   45 35     69%     30.26        
Nov 20 17:49 Calm   Clear   45 35     68%     30.25        
Nov 20 17:44 Calm   Clear   46 35     66%     30.25        
Nov 20 17:39 Calm   Clear   46 36     67%     30.25        
Nov 20 17:34 Calm   Clear   46 36     68%     30.24        
Nov 20 17:29 Calm   Clear   46 36     68%     30.24        
Nov 20 17:24 Calm   Clear   46 35     65%     30.24        
Nov 20 17:19 Calm   Clear   46 35     65%     30.24        
Nov 20 17:14 Calm   Clear   46 35     66%     30.24        
Nov 20 17:09 Calm   Clear   46 36     67%     30.24        
Nov 20 17:04 Calm   Clear   46 35     65%     30.24        
Nov 20 16:59 Calm   Clear   46 35     64%     30.24        
Nov 20 16:54 Calm   Clear   47 36     65%     30.24        
Nov 20 16:49 Calm   Clear   47 35     63%     30.24        
Nov 20 16:44 Calm   Clear   47 34     61%     30.24        
Nov 20 16:39 Calm   Clear   47 34     61%     30.24        
Nov 20 16:34 Calm   Clear   47 35     63%     30.23        
Nov 20 16:29 Calm   Clear   47 34     60%     30.23        
Nov 20 16:24 Calm   Clear   48 34     57%     30.24        
Nov 20 16:19 Calm   Clear   48 33     55%     30.23        
Nov 20 16:14 Calm   Clear   49 34     55%     30.23        
Nov 20 16:09 Calm   Clear   50 33     51%     30.22        
Nov 20 15:59 Calm   Clear   51 34     51%     30.22        
Nov 20 15:54 Calm   Clear   51 33     49%     30.22        
Nov 20 15:49 Calm   Clear   51 33     50%     30.22        
Nov 20 15:44 Calm   Clear   50 33     51%     30.22        
Nov 20 15:39 Calm   Clear   50 32     49%     30.22        
Nov 20 15:34 Calm   Clear   51 34     52%     30.22        
Nov 20 15:29 Calm   Clear   51 31     46%     30.22        
Nov 20 15:14 Calm   Clear   52 31     44%     30.21        
Nov 20 15:09 Calm   Clear   52 30     43%     30.21        
Nov 20 15:04 Calm   Clear   52 30     43%     30.21        
Nov 20 14:54 Calm   Clear   53 34     48%     30.2        
Nov 20 14:49 WSW 1   Clear   53 33     46%     30.2        
Nov 20 14:34 WSW 1   Clear   55 31     39%     30.2        
Nov 20 14:29 Calm   Clear   54 31     41%     30.21        
Nov 20 14:19 SW 1   Clear   55 29     37%     30.21        
Nov 20 14:14 SW 2   Clear   55 31     39%     30.21        
Nov 20 14:04 SW 1   Clear   55 31     40%     30.21        
Nov 20 13:59 SW 2   Clear   55 30     38%     30.22        
Nov 20 13:54 SW 1   Clear   56 30     37%     30.22        
Nov 20 13:49 SW 1   Clear   56 31     38%     30.22        
Nov 20 13:44 SW 3   Clear   56 31     38%     30.22        
Nov 20 13:39 SW 2   Clear   55 29     37%     30.22        
Nov 20 13:31 WSW 2   Clear   55 28     35%     30.21        
Nov 20 13:26 SW 4   Clear   56 28     34%     30.21        
Nov 20 13:21 SW 2   Clear   56 29     35%     30.21        
Nov 20 13:16 SW 1   Clear   57 28     33%     30.21        
Nov 20 13:11 Calm   Clear   57 27     32%     30.21        
Nov 20 13:06 Calm   Clear   56 24     29%     30.2        
Nov 20 13:01 Calm   Clear   55 22     27%     30.21        
Nov 20 12:54 Calm   Clear   54 26     33%     30.21        
Nov 20 12:49 SW 1   Clear   54 22     29%     30.21        
Nov 20 12:44 SW 2   Clear   53 23     31%     30.21        
Nov 20 12:39 SW 2   Clear   53 24     32%     30.21        
Nov 20 12:34 WSW 2   Clear   53 22     30%     30.21        
Nov 20 12:29 SW 2   Clear   53 22     30%     30.21        
Nov 20 12:24 SW 2   Clear   54 24     31%     30.21        
Nov 20 12:19 SW 3   Clear   54 22     29%     30.21        
Nov 20 12:14 WSW 3   Clear   55 22     27%     30.2        
Nov 20 12:04 SW 1   Clear   56 27     33%     30.2        
Nov 20 11:59 SW 2   Clear   55 23     29%     30.2        
Nov 20 11:49 Calm   Clear   56 25     30%     30.21        
Nov 20 11:34 SW 2   Clear   55 27     34%     30.2        
Nov 20 11:29 WSW 2   Clear   55 25     31%     30.19        
Nov 20 11:24 WSW 3   Clear   55 25     31%     30.2        
Nov 20 11:19 SW 2   Clear   54 26     33%     30.2        
Nov 20 11:14 WSW 2   Clear   54 28     37%     30.21        
Nov 20 11:04 WSW 3   Clear   53 30     41%     30.2        
Nov 20 10:59 Calm   Clear   53 25     34%     30.2        
Nov 20 10:54 Calm   Clear   53 29     39%     30.2        
Nov 20 10:49 SW 1   Clear   53 27     36%     30.2        
Nov 20 10:44 SW 1   Clear   52 29     41%     30.2        
Nov 20 10:26 Calm   Clear   51 29     42%     30.18        
Nov 20 10:21 Calm   Clear   50 29     45%     30.18        
Nov 20 10:11 Calm   Clear   49 28     44%     30.19        
Nov 20 10:06 Calm   Clear   49 27     42%     30.19        
Nov 20 09:56 Calm   Clear   49 26     41%     30.2        
Nov 20 09:51 Calm   Clear   49 29     46%     30.21        
Nov 20 09:46 Calm   Clear   48 27     44%     30.21        
Nov 20 09:41 Calm   Clear   48 31     52%     30.21        
Nov 20 09:36 Calm   Clear   47 35     63%     30.22        
Nov 20 09:26 Calm   Clear   46        %     30.23        
Nov 20 09:21 Calm   Clear   45 35     69%     30.23        
Nov 20 09:16 Calm   Clear   45 35     69%     30.23        
Nov 20 09:06 Calm   Clear   44 36     73%     30.23        
Nov 20 08:56 Calm   Clear   43        %     30.23        
Nov 20 08:51 Calm   Clear   42 34     72%     30.22        
Nov 20 08:41 Calm   Clear   41        %     30.22        
Nov 20 08:36 Calm   Clear   41        %     30.22        
Nov 20 08:31 Calm   Clear   40 32     72%     30.22        
Notice The following observation data may not be complete
Nov 20 08:26 Calm   Clear     32      %     30.22        
Nov 20 08:21 Calm   Clear   40 32     74%     30.21        
Nov 20 08:16 Calm   Clear   40        %     30.19        
Nov 20 08:11 Calm   Clear   40 32     74%     30.19        
Nov 20 08:06 Calm   Clear   39 32     75%     30.19        
Nov 20 08:01 Calm   Clear   39 32     76%     30.18        
Nov 20 07:56 Calm   Clear   39 31     74%     30.18        
Nov 20 07:51 Calm   Clear   38 31     76%     30.18        
Nov 20 07:46 Calm   Clear   38 31     77%     30.18        
Nov 20 07:36 Calm   Clear   38 32     78%     30.18        
Nov 20 07:31 Calm   Clear   38 31     76%     30.18        
Nov 20 07:26 Calm   Clear   37 30     77%     30.17        
Nov 20 07:21 Calm   Clear   37 31     78%     30.17        
Nov 20 07:16 Calm   Clear   37 30     77%     30.17        
Nov 20 07:06 Calm   Clear   37 30     77%     30.17        
Nov 20 07:01 Calm   Clear   37 31     78%     30.16        
Nov 20 06:56 Calm   Clear   37 30     76%     30.15        
Nov 20 06:46 Calm   Clear   37 30     77%     30.16        
Notice The following observation data may not be complete
Nov 20 06:41 Calm   Clear     30      %     30.16        
Notice The following observation data may not be complete
Nov 20 06:36 Calm   Clear     31      %     30.16        
Notice The following observation data may not be complete
Nov 20 06:31 Calm   Clear     31      %     30.16        
Notice The following observation data may not be complete
Nov 20 06:26 Calm   Clear     31      %     30.16        
Nov 20 06:21 Calm   Clear   37 30     77%     30.16        
Nov 20 06:16 Calm   Clear   37 30     76%     30.16        
Nov 20 06:11 Calm   Clear   37 30     76%     30.16        
Nov 20 06:06 Calm   Clear   37 31     78%     30.16        
Nov 20 06:01 Calm   Clear   36 30     79%     30.16        
Nov 20 05:56 Calm   Clear   36 30     79%     30.16        
Nov 20 05:51 Calm   Clear   36 29     77%     30.16        
Nov 20 05:46 Calm   Clear   36 30     78%     30.16        
Nov 20 05:41 Calm   Clear   36 30     78%     30.16        
Nov 20 05:36 Calm   Clear   36 30     78%     30.16        
Nov 20 05:26 Calm   Clear   36 29     77%     30.15        
Nov 20 05:21 Calm   Clear   36 30     79%     30.15        
Nov 20 05:16 Calm   Clear   36 30     79%     30.15        
Nov 20 05:11 Calm   Clear   36 30     79%     30.15        
Nov 20 05:06 Calm   Clear   36 30     79%     30.16        
Nov 20 04:56 Calm   Clear   35        %     30.16        
Nov 20 04:51 Calm   Clear   35        %     30.16        
Nov 20 04:36 Calm   Clear   35        %     30.16        
Nov 20 04:31 Calm   Clear   35 29     77%     30.15        
Nov 20 04:26 Calm   Clear   35        %     30.16        
Notice The following observation data may not be complete
Nov 20 04:21 Calm   Clear     29      %     30.16        
Nov 20 04:16 SW 1   Clear   35 28     75%     30.14        
Nov 20 04:11 Calm   Clear   35 29     78%     30.14        
Nov 20 04:06 Calm   Clear   35 29     77%     30.14        
Notice The following observation data may not be complete
Nov 20 04:01 Calm   Clear     29      %     30.14        
Nov 20 03:56 Calm   Clear   35        %     30.14        
Nov 20 03:51 Calm   Clear   34        %     30.15        
Nov 20 03:46 Calm   Clear   34        %     30.15        
Nov 20 03:41 Calm   Clear   34        %     30.15        
Nov 20 03:36 Calm   Clear   34 28     77%     30.16        
Nov 20 03:31 Calm   Clear   34        %     30.16        
Nov 20 03:26 Calm   Clear   34 28     78%     30.16        
Nov 20 03:21 Calm   Clear   34 28     77%     30.16        
Nov 20 03:16 Calm   Clear   34 28     79%     30.16        
Nov 20 03:11 Calm   Clear   33 28     80%     30.16        
Nov 20 03:06 Calm   Clear   33 27     79%     30.17        
Nov 20 03:01 Calm   Clear   33 28     80%     30.17        
Nov 20 02:56 Calm   Clear   33 28     80%     30.18        
Nov 20 02:51 Calm   Clear   32 27     81%     30.17        
Nov 20 02:46 Calm   Clear   32 27     81%     30.17        
Nov 20 02:41 Calm   Clear   32 27     81%     30.18        
Nov 20 02:36 Calm   Clear   32 27     81%     30.18        
Nov 20 02:31 Calm   Clear   32 26     79%     30.18        
Nov 20 02:26 Calm   Clear   32 27     81%     30.18        
Nov 20 02:21 Calm   Clear   31 26     81%     30.17        
Nov 20 02:16 Calm   Clear   31 26     80%     30.17        
Nov 20 02:06 Calm   Clear   31 26     81%     30.17        
Nov 20 02:01 Calm   Clear   31 26     81%     30.16        
Nov 20 01:56 Calm   Clear   31        %     30.16        
Nov 20 01:51 Calm   Clear   30 25     82%     30.16        
Nov 20 01:46 Calm   Clear   30 25     83%     30.17        
Nov 20 01:41 Calm   Clear   30 25     83%     30.17        
Nov 20 01:31 Calm   Clear   30 25     82%     30.17        
Nov 20 01:16 Calm   Clear   30 25     82%     30.18        
Nov 20 01:11 Calm   Clear   30 25     82%     30.17        
Nov 20 01:06 Calm   Clear   30 25     82%     30.17        
Nov 20 00:56 Calm   Clear   30 25     81%     30.18        
Notice The following observation data may not be complete
Nov 20 00:36 Calm   Clear     25      %     30.18        
Nov 20 00:31 Calm   Clear   30 25     81%     30.17        
Nov 20 00:26 Calm   Clear   30 25     81%     30.18        
Nov 20 00:21 Calm   Clear   30 25     82%     30.17        
Nov 20 00:11 Calm   Clear   30 25     82%     30.17        
Nov 19 23:58 Calm   Clear   30 25     82%     30.17        
Nov 19 23:53 Calm   Clear   31 26     82%     30.17        
Nov 19 23:48 Calm   Clear   31 26     81%     30.18        
Nov 19 23:43 Calm   Clear   31 26     81%     30.17        
Nov 19 23:38 Calm   Clear   31 26     81%     30.17        
Nov 19 23:33 Calm   Clear   31 26     82%     30.17        
Notice The following observation data may not be complete
Nov 19 23:28 Calm   Clear     26      %     30.18        
Nov 19 23:18 Calm   Clear   31 26     82%     30.18        
Nov 19 23:08 Calm   Clear   31 26     81%     30.18        
Nov 19 22:58 Calm   Clear   31 26     81%     30.17        
Nov 19 22:48 Calm   Clear   31 26     80%     30.17        
Nov 19 22:43 Calm   Clear   31 26     80%     30.17        
Nov 19 22:38 Calm   Clear   32 27     80%     30.17        
Nov 19 22:33 Calm   Clear   32 27     80%     30.17        
Nov 19 22:28 Calm   Clear   32        %     30.17        
Nov 19 22:23 Calm   Clear   32 27     80%     30.17        
Nov 19 22:18 Calm   Clear   32 27     80%     30.17        
Nov 19 22:13 Calm   Clear   32 26     79%     30.17        
Nov 19 22:08 Calm   Clear   32 27     80%     30.17        
Nov 19 22:03 Calm   Clear   32 27     81%     30.17        
Nov 19 21:58 Calm   Clear   32 27     81%     30.17        
Nov 19 21:53 Calm   Clear   32 27     82%     30.18        
Nov 19 21:48 Calm   Clear   32 27     81%     30.18        
Nov 19 21:43 Calm   Clear   32 27     81%     30.18        
Nov 19 21:38 Calm   Clear   32 27     80%     30.18        
Nov 19 21:33 Calm   Clear   32 27     80%     30.18        
Nov 19 21:26 Calm   Clear   32 27     80%     30.17        
Nov 19 21:19 Calm   Clear   32 27     80%     30.17        
Nov 19 21:12 Calm   Clear   32 27     80%     30.18        
Nov 19 20:53 Calm   Clear   32 27     80%     30.18        
Nov 19 20:48 Calm   Clear   32 27     81%     30.18        
Nov 19 20:43 Calm   Clear   32 27     81%     30.18        
Nov 19 20:38 Calm   Clear   32 27     82%     30.18        
Nov 19 20:33 Calm   Clear   32 27     82%     30.18        
Nov 19 20:28 Calm   Clear   32 27     82%     30.18        
Nov 19 20:23 Calm   Clear   32 27     80%     30.18        
Nov 19 20:18 Calm   Clear   32 26     79%     30.18        
Nov 19 20:13 Calm   Clear   32 26     79%     30.18        
Nov 19 20:08 Calm   Clear   32 27     80%     30.17        
Nov 19 20:03 Calm   Clear   32 26     78%     30.17        
Nov 19 19:58 Calm   Clear   32 26     79%     30.17        
Nov 19 19:53 Calm   Clear   33 27     78%     30.17        
Nov 19 19:48 Calm   Clear   33 27     78%     30.17        
Nov 19 19:43 Calm   Clear   33 27     78%     30.17        
Nov 19 19:38 Calm   Clear   33 27     79%     30.18        
Nov 19 19:33 Calm   Clear   33 27     79%     30.18        
Nov 19 19:28 Calm   Clear   33 27     79%     30.18        
Nov 19 19:23 Calm   Clear   33 27     79%     30.18        
Nov 19 19:18 Calm   Clear   33 27     79%     30.19        
Nov 19 19:13 Calm   Clear   33 27     78%     30.19        
Nov 19 19:08 Calm   Clear   33 27     78%     30.19        
Nov 19 19:03 Calm   Clear   33 27     78%     30.18        
Nov 19 18:58 Calm   Clear   33 27     79%     30.18        
Nov 19 18:53 Calm   Clear   33 27     78%     30.17        
Nov 19 18:48 Calm   Clear   34 28     77%     30.17        
Nov 19 18:43 Calm   Clear   34 28     77%     30.17        
Nov 19 18:33 Calm   Clear   34 27     76%     30.16        
Nov 19 18:27 Calm   Clear   35 28     75%     30.15        
Nov 19 18:20 Calm   Clear   35 28     75%     30.15        
Nov 19 18:12 Calm   Clear   35 28     74%     30.15        
Nov 19 18:07 Calm   Clear   36 28     73%     30.15        
Nov 19 18:02 Calm   Clear   36 29     74%     30.16        
Nov 19 17:57 Calm   Clear   36 28     73%     30.16        
Nov 19 17:52 Calm   Clear   36 28     72%     30.16        
Nov 19 17:44 Calm   Clear   37 28     71%     30.17        
Nov 19 17:29 Calm   Clear   38 29     69%     30.17        
Nov 19 17:24 Calm   Clear   38 28     68%     30.17        
Nov 19 17:19 Calm   Clear   38 29     69%     30.17        
Nov 19 17:14 Calm   Clear   39 29     66%     30.16        
Nov 19 17:09 Calm   Clear   39 29     66%     30.16        
Nov 19 17:04 Calm   Clear   40 29     65%     30.16        
Nov 19 16:59 Calm   Clear   40 28     63%     30.16        
Nov 19 16:54 Calm   Clear   40 28     63%     30.15        
Nov 19 16:49 Calm   Clear   41 29     62%     30.15        
Nov 19 16:44 Calm   Clear   41 29     62%     30.15        
Nov 19 16:39 Calm   Clear   42 29     60%     30.14        
Nov 19 16:29 Calm   Clear   43 29     58%     30.14        
Nov 19 16:24 Calm   Clear   43 28     55%     30.15        
Nov 19 16:19 Calm   Clear   43 28     54%     30.15        
Nov 19 16:14 Calm   Clear   44 28     54%     30.14        
Nov 19 16:09 Calm   Clear   44 28     52%     30.15        
Nov 19 16:04 Calm   Clear   45 27     50%     30.15        
Nov 19 15:59 Calm   Clear   45 27     49%     30.15        
Nov 19 15:54 Calm   Clear   46 27     47%     30.15        
Nov 19 15:44 Calm   Clear   47 26     44%     30.15        
Nov 19 15:39 Calm   Clear   47 26     43%     30.15        
Nov 19 15:34 Calm   Clear   48 26     42%     30.15        
Nov 19 15:28 Calm   Clear   49 27     42%     30.14        
Nov 19 15:20 Calm   Clear   50 27     40%     30.14        
Nov 19 15:15 Calm   Clear   50 25     38%     30.14        
Nov 19 15:05 Calm   Clear   51 24     35%     30.14        
Nov 19 15:00 Calm   Clear   52 25     35%     30.13        
Nov 19 14:55 Calm   Clear   52 23     32%     30.13        
Nov 19 14:50 Calm   Clear   52 22     31%     30.14        
Nov 19 14:45 Calm   Clear   53 23     31%     30.14        
Nov 19 14:40 SW 1   Clear   53 20     27%     30.14        
Nov 19 14:35 W 1   Clear   53 19     26%     30.14        
Nov 19 14:30 SW 2   Clear   53 23     31%     30.14        
Nov 19 14:25 WSW 3   Clear   53 21     28%     30.14        
Nov 19 14:20 SW 2   Clear   53 16     23%     30.14        
Nov 19 14:15 SW 2   Clear   53 22     30%     30.15        
Nov 19 14:10 SW 2   Clear   53 18     25%     30.15        
Nov 19 14:05 SW 3   Clear   53 19     26%     30.15        
Nov 19 14:00 WSW 2   Clear   53 19     26%     30.15        
Nov 19 13:55 SW 2   Clear   53 21     28%     30.15        
Nov 19 13:50 WSW 2   Clear   53 18     25%     30.15        
Nov 19 13:45 SW 1   Clear   53 20     27%     30.15        
Nov 19 13:40 Calm   Clear   54 22     29%     30.15        
Nov 19 13:35 Calm   Clear   54 17     23%     30.15        
Nov 19 13:30 Calm   Clear   54 13     19%     30.15        
Nov 19 13:25 SW 1   Clear   55 16     21%     30.15        
Nov 19 13:20 SW 1   Clear   55 21     26%     30.16        
Nov 19 13:15 SW 1   Clear   55 11     17%     30.16        
Nov 19 13:10 SW 1   Clear   55 17     22%     30.16        
Nov 19 13:05 SSW 1   Clear   55 15     20%     30.16        
Nov 19 13:00 SSW 1   Clear   55 11     17%     30.16        
Nov 19 12:55 SSW 2   Clear   55 3     12%     30.16        
Nov 19 12:50 SSW 1   Clear   55 14     19%     30.17        
Nov 19 12:45 WSW 1   Clear   55 14     19%     30.17        
Nov 19 12:40 SW 1   Clear   55 15     20%     30.17        
Nov 19 12:35 SW 2   Clear   55 19     24%     30.17        
Nov 19 12:30 SW 2   Clear   54 21     27%     30.17        
Nov 19 12:25 Calm   Clear   54 26     33%     30.17        
Nov 19 12:20 SW 1   Clear   54 22     28%     30.17        
Nov 19 12:15 SW 1   Clear   54 22     29%     30.17        
Nov 19 12:10 WSW 2   Clear   55 21     26%     30.17        
Nov 19 12:05 WSW 3   Clear   55 23     28%     30.16        
Nov 19 12:00 SW 3   Clear   55 23     29%     30.16        
Nov 19 11:55 SW 3   Clear   55 18     23%     30.16        
Nov 19 11:50 SW 3   Clear   53 18     25%     30.16        
Nov 19 11:45 SW 3   Clear   52 17     25%     30.16        
Nov 19 11:40 Calm   Clear   52 21     29%     30.17        
Nov 19 11:35 SSW 1   Clear   51 20     29%     30.17        
Nov 19 11:30 SSW 1   Clear   50 19     29%     30.17        
Nov 19 11:25 SSW 1   Clear   49 16     27%     30.17        
Nov 19 11:20 SSW 1   Clear   49 18     29%     30.18        
Nov 19 11:15 Calm   Clear   49 18     29%     30.16        
Nov 19 11:10 Calm   Clear   49 20     31%     30.16        
Nov 19 11:05 Calm   Clear   48 16     28%     30.17        
Nov 19 11:00 Calm   Clear   48 18     30%     30.18        
Nov 19 10:55 Calm   Clear   48 17     29%     30.18        
Nov 19 10:50 Calm   Clear   48 18     30%     30.19        
Nov 19 10:45 Calm   Clear   47 20     34%     30.19        
Nov 19 10:40 Calm   Clear   47 20     34%     30.19        
Nov 19 10:35 Calm   Clear   46 21     37%     30.19        
Nov 19 10:30 Calm   Clear   45 20     36%     30.19        
Nov 19 10:25 Calm   Clear   45 20     36%     30.19        
Nov 19 10:20 Calm   Clear   44 20     38%     30.19        
Nov 19 10:15 Calm   Clear   43 20     39%     30.19        
Nov 19 10:09 Calm   Clear   42 19     39%     30.19        
Nov 19 10:03 Calm   Clear   42 21     42%     30.19        
Nov 19 09:56 Calm   Clear   41 21     45%     30.2        
Nov 19 09:49 Calm   Clear   39 22     50%     30.2        
Nov 19 09:43 Calm   Clear   38 24     56%     30.21        
Nov 19 09:36 Calm   Clear   37 26     63%     30.21        
Notice The following observation data may not be complete
Nov 19 09:29 Calm   Clear     27      %     30.21        
Notice The following observation data may not be complete
Nov 19 09:16 Calm   Clear     28      %     30.21        
Notice The following observation data may not be complete
Nov 19 09:11 Calm   Clear     27      %     30.21        
Notice The following observation data may not be complete
Nov 19 09:05 Calm   Clear     26      %     30.22        
Nov 19 08:58 Calm   Clear   30        %     30.21        
Nov 19 08:53 Calm   Clear   30        %     30.22        
Notice The following observation data may not be complete
Nov 19 08:48 Calm   Clear     25      %     30.22        
Notice The following observation data may not be complete
Nov 19 08:43 Calm   Clear     25      %     30.22        
Nov 19 08:38 Calm   Clear   28 24     85%     30.22        
Nov 19 08:33 Calm   Clear   28 24     86%     30.22        
Nov 19 08:28 Calm   Clear   28        %     30.22        
Nov 19 08:23 Calm   Clear   27 24     87%     30.22        
Nov 19 08:18 Calm   Clear   27 24     88%     30.22        
Nov 19 08:13 Calm   Clear   27 24     88%     30.22        
Nov 19 08:08 Calm   Clear   27 24     88%     30.22        
Nov 19 08:03 Calm   Clear   27 24     88%     30.22        
Nov 19 07:58 Calm   Clear   27 24     88%     30.22        
Nov 19 07:53 Calm   Clear   27 24     88%     30.22        
Nov 19 07:48 Calm   Clear   27 24     88%     30.22        
Nov 19 07:43 Calm   Clear   26 23     88%     30.23        
Nov 19 07:38 Calm   Clear   26 23     88%     30.23        
Nov 19 07:33 Calm   Clear   26 23     88%     30.23        
Nov 19 07:28 Calm   Clear   26 23     88%     30.23        
Nov 19 07:23 Calm   Clear   26 23     88%     30.23        
Nov 19 07:18 Calm   Clear   26 23     87%     30.23        
Nov 19 07:13 Calm   Clear   26 23     88%     30.23        
Nov 19 07:08 Calm   Clear   26 23     88%     30.23        
Nov 19 07:03 Calm   Clear   26 23     88%     30.23        
Nov 19 06:58 Calm   Clear   26        %     30.22        
Nov 19 06:53 Calm   Clear   26 23     87%     30.22        
Nov 19 06:48 Calm   Clear   26 23     87%     30.22        
Nov 19 06:43 Calm   Clear   26 23     87%     30.22        
Nov 19 06:38 Calm   Clear   26 23     87%     30.22        
Nov 19 06:33 Calm   Clear   26 23     87%     30.22        
Nov 19 06:07 Calm   Clear   26 23     87%     30.23        
Nov 19 05:54 Calm   Clear   27 24     87%     30.23        
Nov 19 05:47 Calm   Clear   26 23     87%     30.22        
Nov 19 05:42 Calm   Clear   26 23     87%     30.23        
Nov 19 05:32 Calm   Clear   27 24     87%     30.23        
Notice The following observation data may not be complete
Nov 19 05:27 Calm   Clear     24      %     30.22        
Nov 19 05:17 Calm   Clear   27        %     30.22        
Notice The following observation data may not be complete
Nov 19 05:12 Calm   Clear     24      %     30.22        
Nov 19 04:57 Calm   Clear   27 24     87%     30.22        
Nov 19 04:42 Calm   Clear   27 24     87%     30.21        
Nov 19 04:32 Calm   Clear   27 24     87%     30.21        
Nov 19 04:27 Calm   Clear   27 24     87%     30.21        
Nov 19 04:17 Calm   Clear   27 24     87%     30.22        
Nov 19 04:12 Calm   Clear   27 24     87%     30.22        
Nov 19 04:02 Calm   Clear   27 24     87%     30.22        
Nov 19 03:57 Calm   Clear   27        %     30.22        
Nov 19 03:52 Calm   Clear   27 24     87%     30.22        
Nov 19 03:47 Calm   Clear   27 24     87%     30.22        
Nov 19 03:22 Calm   Clear   27 24     88%     30.23        
Nov 19 03:12 Calm   Clear   27 24     87%     30.22        
Nov 19 03:07 Calm   Clear   27 24     88%     30.22        
Nov 19 03:02 Calm   Clear   28 25     88%     30.22        
Nov 19 02:47 Calm   Clear   28 25     87%     30.22        
Nov 19 02:37 Calm   Clear   28 25     88%     30.21        
Nov 19 02:27 Calm   Clear   28 25     88%     30.22        
Nov 19 02:12 Calm   Clear   28 25     88%     30.22        
Nov 19 02:02 Calm   Clear   28 25     88%     30.22        
Jun 12 00:33 Calm   Clear   31 29     91%              
Jun 11 21:16 Calm   Clear   36 33     87%     29.92        
Jun 11 19:36 SW 2   Clear   37 34     87%              
Jun 11 14:06 SW 1   Clear   37 36     96%              
Jun 11 13:51 Calm   Clear   36 35     95%              
Jun 11 13:26 WSW 2   Clear   37 36     95%              
Jun 11 06:04 Calm   Clear   36 33     87%              
Jun 11 02:39 Calm   Clear   36 33     88%              
Jun 11 01:35 Calm   Clear   37 33     86%              
Jun 11 00:18 Calm   Clear   39 34     83%              
Jun 11 00:08 Calm   Clear   40 35     83%              
Jun 10 20:37 Calm   Clear   45 44     95%     29.96        
Jun 10 20:17 WSW 1   Clear   45 44     95%              
Jun 10 16:43 SW 3   Clear   48 45     91% 47            
Notice The following observation data may not be complete
Jun 10 15:55     Clear            %              
Jun 10 15:45 SW 5   Clear   49 46     89% 47            
Jun 10 15:20 SW 5   Clear   51 47     87%              
Jun 10 11:29 SW 3   Clear   47 45     93% 46            
Jun 10 07:41 Calm   Clear   47 41     80%     29.98        
Jun 10 04:27 Calm   Clear   39 36     89%     29.98        
Jun 10 04:02 Calm   Clear   39 36     88%     29.99        
Jun 10 03:49 Calm   Clear   39 36     88%     29.99        
Jun 10 02:24 W 1   Clear   40 36     86%     30.01        
Jun 09 22:59 Calm   Clear   46 40     79%     30.06        
Jun 09 22:39 Calm   Clear   47 40     76%     30.05        
Jun 09 21:42 Calm   Clear   50 47     88%     30.04        
Jun 09 21:22 Calm   Clear   51 47     87%     30.03        
Jun 09 20:37 Calm   Clear   52 49     90%     30.03        
Jun 09 20:27 Calm   Clear   51 48     90%     30.03        
Jun 09 18:16 WSW 4   Clear   53 49     85%     30.04        
Jun 09 17:41 WSW 3   Clear   54 48     81%     30.05        
Jun 09 15:51 WSW 4   Clear   58 48     69%     30.04        
Jun 09 07:05 Calm   Clear   41 38     90%     30.07        
Jun 09 06:15 Calm   Clear   40 37     88%     30.08        
Jun 09 04:55 Calm   Clear   41 37     87%     30.09        
Jun 09 03:25 Calm   Clear   42 38     86%     30.1        
Jun 09 03:15 Calm   Clear   42 38     86%     30.1        
Jun 08 23:04 Calm   Clear   47 41     81%     30.14        
Jun 08 22:21 Calm   Clear   48 41     78%     30.14        
Jun 08 16:28 SW 3   Clear   59 45     59%     30.14        
Jun 08 13:28 WSW 4   Clear   57 45     65%     30.17        
Jun 08 12:33 WSW 3   Clear   58 46     65%     30.16        
Jun 08 12:18 WSW 5   Clear   58 46     64%     30.16        
Jun 08 10:08 WSW 4   Clear   56 41     56%     30.15        
Jun 08 08:18 Calm   Clear   53 41     64%     30.13        
Jun 08 07:13 Calm   Clear   45 39     78%     30.13        
Jun 08 06:55 Calm   Clear   44 38     80%     30.12        
Notice The following observation data may not be complete
Jun 08 05:15 Calm   Clear     37      %     30.12        
Jun 08 03:41 Calm   Clear   44 38     78%     30.14        
Jun 08 02:31 Calm   Clear   45 38     77%     30.13        
Jun 07 23:56 Calm   Clear   49 39     68%     30.14        
Jun 07 18:16 SW 1   Clear   65 43     45%     30.13        
Jun 07 16:46 WSW 2   Clear   69 44     41%     30.13        
Jun 07 11:49 SW 6   Clear   67 40     37%     30.14        
Jun 07 09:04 WSW 1   Clear   62 35     37%     30.11        
Jun 07 06:08 Calm   Clear   42 36     78%     30.13        
Jun 06 10:25 WSW 4   Clear   65 37     36%     30.16        
Jun 06 09:28 SW 3   Clear   64 34     33%     30.16        
Jun 06 08:28 Calm   Clear   54 39     57%     30.14        
Notice The following observation data may not be complete
Jun 06 08:13 Calm   Clear     37      %     30.14        
Notice The following observation data may not be complete
Jun 06 08:03 Calm   Clear     37      %     30.14        
Notice The following observation data may not be complete
Jun 06 07:01 Calm   Clear     33      %     30.15        
Jun 06 06:26 Calm   Clear   40 32     73%     30.14        
Notice The following observation data may not be complete
Jun 06 06:16 Calm   Clear     32      %     30.14        
Notice The following observation data may not be complete
Jun 06 05:41 Calm   Clear     32      %     30.14        
Notice The following observation data may not be complete
Jun 06 05:01 Calm   Clear     33      %     30.15        
Jun 06 03:13 Calm   Clear   43 36     75%     30.15        
Notice The following observation data may not be complete
Jun 06 02:33 Calm   Clear     37      %     30.15        
Jun 06 01:17 Calm   Clear   46 40     79%     30.16        
Jun 06 01:12 Calm   Clear   47 41     79%     30.16        
Jun 06 00:22 Calm   Clear   48 41     78%     30.16        
Jun 05 22:03 Calm   Clear   53 43     69%     30.17        
Jun 05 19:40 Calm   Clear   61 45     56%     30.14        
Jun 05 15:51 WSW 5   Clear   68 44     42%     30.11